When you browse on this site, cookies collect data to enhance your experience and personalize the content and advertising you see.
Visit our Privacy Policy to learn more. By continuing to use the site, you agree to this use of cookies and data.
  • In United Kingdom
  • List of Countries
  • For 7 days
  • Water Temperature
  • Weather Map
  • Weather Widgets
  • user-avatar
    Login

    Hourly Weather Mingora

    Today, 15 October, Tuesday

    Time Temperature Precipitation Wind Pressure Humidity
    00:00 +19°C° 0 mm 2 mps 676 mmHg 65%
    01:00 +19°C° 0 mm 2 mps 676 mmHg 64%
    02:00 +18°C° 0 mm 2 mps 676 mmHg 64%
    03:00 +18°C° 0 mm 2 mps 676 mmHg 63%
    04:00 +18°C° 0 mm 2 mps 676 mmHg 63%
    05:00 +18°C° 0 mm 2 mps 675 mmHg 62%
    06:00 +19°C° 0 mm 2 mps 676 mmHg 59%
    07:00 +21°C° 0 mm 1 mps 677 mmHg 56%
    08:00 +23°C° 0 mm 1 mps 677 mmHg 52%
    09:00 +24°C° 0 mm 1 mps 677 mmHg 48%
    10:00 +26°C° 0 mm 2 mps 678 mmHg 44%
    11:00 +27°C° 0 mm 2 mps 678 mmHg 40%
    12:00 +28°C° 0 mm 2 mps 678 mmHg 39%
    13:00 +28°C° 0 mm 2 mps 677 mmHg 39%
    14:00 +28°C° 0 mm 2 mps 677 mmHg 38%
    15:00 +27°C° 0 mm 2 mps 677 mmHg 43%
    16:00 +26°C° 0 mm 2 mps 677 mmHg 47%
    17:00 +25°C° 0 mm 1 mps 677 mmHg 52%
    18:00 +24°C° 0 mm 1 mps 677 mmHg 56%
    19:00 +22°C° 0 mm 1 mps 677 mmHg 60%
    20:00 +21°C° 0 mm 1 mps 677 mmHg 64%
    21:00 +21°C° 0 mm 1 mps 677 mmHg 63%
    22:00 +20°C° 0 mm 1 mps 677 mmHg 63%
    23:00 +19°C° 0 mm 2 mps 677 mmHg 63%

    Tomorrow, 16 October, Wednesday

    Time Temperature Precipitation Wind Pressure Humidity
    00:00 +19°C° 0 mm 2 mps 676 mmHg 62%
    01:00 +19°C° 0 mm 2 mps 676 mmHg 62%
    02:00 +19°C° 0 mm 2 mps 676 mmHg 62%
    03:00 +18°C° 0 mm 2 mps 676 mmHg 61%
    04:00 +18°C° 0 mm 2 mps 676 mmHg 61%
    05:00 +18°C° 0 mm 2 mps 676 mmHg 61%
    06:00 +20°C° 0 mm 1 mps 676 mmHg 58%
    07:00 +21°C° 0 mm 1 mps 677 mmHg 55%
    08:00 +23°C° 0 mm 1 mps 677 mmHg 52%
    09:00 +24°C° 0 mm 1 mps 678 mmHg 48%
    10:00 +26°C° 0 mm 2 mps 678 mmHg 43%
    11:00 +27°C° 0 mm 2 mps 678 mmHg 39%
    12:00 +28°C° 0 mm 2 mps 678 mmHg 38%
    13:00 +28°C° 0 mm 2 mps 677 mmHg 37%
    14:00 +29°C° 0 mm 2 mps 677 mmHg 36%
    15:00 +27°C° 0 mm 2 mps 676 mmHg 41%
    16:00 +26°C° 0 mm 2 mps 676 mmHg 46%
    17:00 +25°C° 0 mm 1 mps 676 mmHg 51%
    18:00 +24°C° 0 mm 1 mps 676 mmHg 55%
    19:00 +22°C° 0 mm 1 mps 676 mmHg 58%
    20:00 +21°C° 0 mm 1 mps 676 mmHg 62%
    21:00 +21°C° 0 mm 1 mps 676 mmHg 62%
    22:00 +21°C° 0 mm 1 mps 676 mmHg 62%
    23:00 +19°C° 0 mm 2 mps 676 mmHg 61%

    Day after tomorrow, 17 October, Thursday

    Time Temperature Precipitation Wind Pressure Humidity
    00:00 +19°C° 0 mm 2 mps 676 mmHg 61%
    01:00 +19°C° 0 mm 2 mps 675 mmHg 61%
    02:00 +20°C° 0 mm 1 mps 675 mmHg 61%
    03:00 +18°C° 0 mm 2 mps 675 mmHg 61%
    04:00 +18°C° 0 mm 2 mps 675 mmHg 61%
    05:00 +18°C° 0 mm 2 mps 675 mmHg 61%
    06:00 +19°C° 0 mm 2 mps 676 mmHg 58%
    07:00 +20°C° 0 mm 2 mps 676 mmHg 55%
    08:00 +23°C° 0 mm 1 mps 677 mmHg 52%
    09:00 +24°C° 0 mm 2 mps 677 mmHg 46%
    10:00 +26°C° 0 mm 2 mps 678 mmHg 40%
    11:00 +27°C° 0 mm 2 mps 678 mmHg 35%
    12:00 +27°C° 0 mm 2 mps 677 mmHg 34%
    13:00 +28°C° 0 mm 2 mps 677 mmHg 33%
    14:00 +28°C° 0 mm 3 mps 677 mmHg 33%
    15:00 +27°C° 0 mm 2 mps 676 mmHg 37%
    16:00 +26°C° 0 mm 2 mps 676 mmHg 41%
    17:00 +25°C° 0 mm 1 mps 676 mmHg 46%
    18:00 +23°C° 0 mm 1 mps 676 mmHg 48%
    19:00 +22°C° 0 mm 1 mps 676 mmHg 51%
    20:00 +20°C° 0 mm 1 mps 676 mmHg 54%
    21:00 +19°C° 0.1 mm 2 mps 676 mmHg 54%
    22:00 +19°C° 0.1 mm 2 mps 676 mmHg 55%
    23:00 +18°C° 0.1 mm 2 mps 676 mmHg 55%

    18 October, Friday

    Time Temperature Precipitation Wind Pressure Humidity
    00:00 +18°C° 0.2 mm 2 mps 676 mmHg 56%
    01:00 +18°C° 0.2 mm 2 mps 676 mmHg 57%
    02:00 +17°C° 0.2 mm 2 mps 675 mmHg 58%
    03:00 +17°C° 0.5 mm 2 mps 675 mmHg 59%
    04:00 +17°C° 0.5 mm 2 mps 675 mmHg 59%
    05:00 +17°C° 0.5 mm 2 mps 675 mmHg 60%
    06:00 +18°C° 0.4 mm 2 mps 676 mmHg 58%
    07:00 +20°C° 0.4 mm 1 mps 677 mmHg 56%
    08:00 +21°C° 0.4 mm 1 mps 677 mmHg 54%
    09:00 +22°C° 0 mm 1 mps 678 mmHg 49%
    10:00 +23°C° 0 mm 1 mps 678 mmHg 43%
    11:00 +25°C° 0 mm 1 mps 678 mmHg 38%
    12:00 +25°C° 0 mm 1 mps 678 mmHg 36%
    13:00 +26°C° 0 mm 1 mps 678 mmHg 35%
    14:00 +26°C° 0 mm 1 mps 678 mmHg 33%
    15:00 +25°C° 0 mm 1 mps 677 mmHg 38%
    16:00 +24°C° 0 mm 1 mps 677 mmHg 43%
    17:00 +21°C° 0 mm 0 mps 677 mmHg 49%
    18:00 +22°C° 0 mm 1 mps 677 mmHg 50%
    19:00 +21°C° 0 mm 1 mps 677 mmHg 51%
    20:00 +19°C° 0 mm 2 mps 677 mmHg 52%
    21:00 +18°C° 0 mm 2 mps 677 mmHg 51%
    22:00 +18°C° 0 mm 2 mps 677 mmHg 51%
    23:00 +17°C° 0 mm 2 mps 677 mmHg 51%

    19 October, Saturday

    Time Temperature Precipitation Wind Pressure Humidity
    00:00 +17°C° 0.4 mm 2 mps 677 mmHg 54%
    01:00 +17°C° 0.4 mm 2 mps 677 mmHg 58%
    02:00 +16°C° 0.4 mm 2 mps 677 mmHg 61%
    03:00 +16°C° 0 mm 2 mps 677 mmHg 60%
    04:00 +16°C° 0 mm 2 mps 677 mmHg 58%
    05:00 +16°C° 0 mm 2 mps 677 mmHg 57%
    06:00 +17°C° 0 mm 2 mps 677 mmHg 54%
    07:00 +18°C° 0 mm 2 mps 678 mmHg 51%
    08:00 +21°C° 0 mm 1 mps 679 mmHg 48%
    09:00 +21°C° 0 mm 2 mps 679 mmHg 44%
    10:00 +23°C° 0 mm 2 mps 679 mmHg 41%
    11:00 +25°C° 0 mm 2 mps 680 mmHg 37%
    12:00 +25°C° 0 mm 2 mps 679 mmHg 37%
    13:00 +24°C° 0 mm 2 mps 679 mmHg 36%
    14:00 +24°C° 0 mm 2 mps 678 mmHg 36%
    15:00 +23°C° 0 mm 2 mps 678 mmHg 41%
    16:00 +22°C° 0 mm 1 mps 677 mmHg 46%
    17:00 +21°C° 0 mm 1 mps 677 mmHg 50%
    18:00 +21°C° 0 mm 1 mps 677 mmHg 51%
    19:00 +20°C° 0 mm 1 mps 677 mmHg 51%
    20:00 +18°C° 0 mm 2 mps 677 mmHg 52%
    21:00 +17°C° 0 mm 2 mps 677 mmHg 52%
    22:00 +17°C° 0 mm 2 mps 677 mmHg 51%
    23:00 +17°C° 0 mm 2 mps 677 mmHg 51%

    20 October, Sunday

    Time Temperature Precipitation Wind Pressure Humidity
    00:00 +17°C° 0 mm 2 mps 677 mmHg 51%
    01:00 +17°C° 0 mm 2 mps 676 mmHg 51%
    02:00 +17°C° 0 mm 2 mps 676 mmHg 50%
    03:00 +16°C° 0 mm 2 mps 676 mmHg 50%
    04:00 +16°C° 0 mm 2 mps 676 mmHg 50%
    05:00 +16°C° 0 mm 2 mps 676 mmHg 49%
    06:00 +17°C° 0 mm 2 mps 677 mmHg 48%
    07:00 +19°C° 0 mm 2 mps 677 mmHg 46%
    08:00 +21°C° 0 mm 1 mps 678 mmHg 44%
    09:00 +22°C° 0 mm 1 mps 678 mmHg 40%
    10:00 +24°C° 0 mm 1 mps 678 mmHg 35%
    11:00 +25°C° 0 mm 2 mps 679 mmHg 31%
    12:00 +26°C° 0 mm 2 mps 678 mmHg 31%
    13:00 +26°C° 0 mm 2 mps 678 mmHg 31%
    14:00 +26°C° 0 mm 2 mps 677 mmHg 31%
    15:00 +25°C° 0 mm 2 mps 677 mmHg 36%
    16:00 +24°C° 0 mm 1 mps 677 mmHg 42%
    17:00 +23°C° 0 mm 1 mps 676 mmHg 47%
    18:00 +21°C° 0.1 mm 1 mps 676 mmHg 50%
    19:00 +20°C° 0.1 mm 1 mps 676 mmHg 53%
    20:00 +19°C° 0.1 mm 1 mps 677 mmHg 56%
    21:00 +18°C° 0.2 mm 1 mps 677 mmHg 57%
    22:00 +18°C° 0.2 mm 1 mps 677 mmHg 57%
    23:00 +17°C° 0.2 mm 2 mps 677 mmHg 58%
    Show more